TimeCST,TemperatureF,Dew PointF,Humidity,Sea Level PressureIn,VisibilityMPH,Wind Direction,Wind SpeedMPH,Gust SpeedMPH,PrecipitationIn,Events,Conditions,WindDirDegrees,DateUTC
12:13 AM,42.8,33.8,70,29.16,10.0,SSW,4.6,-,N/A,,Clear,210,2011-11-13 06:13:00
12:33 AM,42.8,33.8,70,29.17,10.0,SSW,5.8,-,N/A,,Clear,210,2011-11-13 06:33:00
12:53 AM,42.8,33.8,70,29.17,10.0,SW,6.9,-,N/A,,Clear,230,2011-11-13 06:53:00
1:14 AM,44.6,33.8,66,29.17,10.0,SW,4.6,-,N/A,,Clear,230,2011-11-13 07:14:00
1:33 AM,44.6,32.0,61,29.16,10.0,WSW,5.8,-,N/A,,Clear,240,2011-11-13 07:33:00
2:13 AM,44.6,30.2,57,29.18,10.0,WSW,3.5,-,N/A,,Clear,240,2011-11-13 08:13:00
2:33 AM,42.8,30.2,61,29.18,10.0,WSW,3.5,-,N/A,,Clear,240,2011-11-13 08:33:00
2:53 AM,42.8,28.4,57,29.18,10.0,SW,3.5,-,N/A,,Clear,230,2011-11-13 08:53:00
3:13 AM,42.8,28.4,57,29.18,10.0,West,6.9,-,N/A,,Clear,270,2011-11-13 09:13:00
3:33 AM,42.8,26.6,53,29.19,10.0,West,4.6,-,N/A,,Clear,260,2011-11-13 09:33:00
3:53 AM,41.0,26.6,57,29.20,10.0,WSW,4.6,-,N/A,,Clear,240,2011-11-13 09:53:00
4:13 AM,41.0,26.6,57,29.20,10.0,West,4.6,-,N/A,,Clear,260,2011-11-13 10:13:00
4:33 AM,39.2,26.6,61,29.20,10.0,West,5.8,-,N/A,,Clear,270,2011-11-13 10:33:00
4:53 AM,39.2,26.6,61,29.20,10.0,West,4.6,-,N/A,,Clear,260,2011-11-13 10:53:00
5:13 AM,39.2,26.6,61,29.22,10.0,WSW,4.6,-,N/A,,Clear,250,2011-11-13 11:13:00
5:33 AM,39.2,26.6,61,29.22,10.0,WSW,4.6,-,N/A,,Clear,250,2011-11-13 11:33:00
5:53 AM,39.2,26.6,61,29.22,10.0,West,3.5,-,N/A,,Clear,260,2011-11-13 11:53:00
6:13 AM,39.2,26.6,61,29.22,10.0,West,4.6,-,N/A,,Clear,280,2011-11-13 12:13:00
6:53 AM,37.4,26.6,65,29.22,10.0,WNW,9.2,-,N/A,,Clear,300,2011-11-13 12:53:00
7:53 AM,35.6,26.6,70,29.23,10.0,West,5.8,-,N/A,,Scattered Clouds,280,2011-11-13 13:53:00
8:13 AM,37.4,26.6,65,29.24,10.0,WNW,5.8,-,N/A,,Overcast,290,2011-11-13 14:13:00
8:33 AM,37.4,26.6,65,29.26,10.0,WNW,8.1,-,N/A,,Mostly Cloudy,290,2011-11-13 14:33:00
8:53 AM,39.2,28.4,65,29.26,10.0,WNW,6.9,-,N/A,,Scattered Clouds,290,2011-11-13 14:53:00
9:13 AM,39.2,28.4,65,29.26,10.0,West,3.5,-,N/A,,Scattered Clouds,280,2011-11-13 15:13:00
9:33 AM,39.2,28.4,65,29.27,10.0,WNW,8.1,-,N/A,,Clear,290,2011-11-13 15:33:00
9:53 AM,39.2,28.4,65,29.29,10.0,WNW,9.2,16.1,N/A,,Mostly Cloudy,300,2011-11-13 15:53:00
10:13 AM,39.2,28.4,65,29.29,10.0,NW,11.5,17.3,N/A,,Mostly Cloudy,310,2011-11-13 16:13:00
10:33 AM,39.2,28.4,65,29.30,10.0,NW,12.7,16.1,N/A,,Mostly Cloudy,320,2011-11-13 16:33:00
10:53 AM,37.4,28.4,70,29.31,10.0,NW,11.5,17.3,N/A,,Overcast,320,2011-11-13 16:53:00
11:13 AM,37.4,30.2,75,29.31,10.0,NW,11.5,-,N/A,,Mostly Cloudy,310,2011-11-13 17:13:00
11:33 AM,37.4,30.2,75,29.32,10.0,WNW,12.7,20.7,N/A,,Scattered Clouds,290,2011-11-13 17:33:00
11:53 AM,37.4,30.2,75,29.31,10.0,NW,10.4,-,N/A,,Scattered Clouds,310,2011-11-13 17:53:00
12:13 PM,37.4,30.2,75,29.31,10.0,West,10.4,17.3,N/A,,Scattered Clouds,280,2011-11-13 18:13:00
12:33 PM,39.2,30.2,70,29.31,10.0,WNW,13.8,20.7,N/A,,Clear,290,2011-11-13 18:33:00
12:53 PM,39.2,30.2,70,29.31,10.0,West,9.2,-,N/A,,Scattered Clouds,280,2011-11-13 18:53:00
1:13 PM,39.2,30.2,70,29.31,10.0,West,12.7,16.1,N/A,,Mostly Cloudy,270,2011-11-13 19:13:00
1:33 PM,39.2,30.2,70,29.31,10.0,WNW,10.4,-,N/A,,Overcast,300,2011-11-13 19:33:00
1:53 PM,39.2,30.2,70,29.33,10.0,West,12.7,18.4,N/A,,Overcast,280,2011-11-13 19:53:00
2:13 PM,39.2,30.2,70,29.33,10.0,WNW,13.8,17.3,N/A,,Overcast,290,2011-11-13 20:13:00
2:33 PM,39.2,30.2,70,29.34,10.0,West,12.7,20.7,N/A,,Mostly Cloudy,270,2011-11-13 20:33:00
2:53 PM,39.2,30.2,70,29.34,10.0,WNW,11.5,17.3,N/A,,Mostly Cloudy,290,2011-11-13 20:53:00
3:13 PM,39.2,30.2,70,29.35,10.0,WNW,10.4,-,N/A,,Mostly Cloudy,290,2011-11-13 21:13:00
3:33 PM,41.0,30.2,65,29.35,10.0,West,6.9,-,N/A,,Mostly Cloudy,270,2011-11-13 21:33:00
3:53 PM,41.0,30.2,65,29.38,10.0,West,5.8,-,N/A,,Mostly Cloudy,260,2011-11-13 21:53:00
4:13 PM,41.0,30.2,65,29.37,10.0,West,5.8,-,N/A,,Scattered Clouds,260,2011-11-13 22:13:00
4:33 PM,41.0,30.2,65,29.38,10.0,West,5.8,-,N/A,,Scattered Clouds,260,2011-11-13 22:33:00
4:53 PM,41.0,30.2,65,29.38,10.0,WSW,6.9,-,N/A,,Mostly Cloudy,250,2011-11-13 22:53:00
5:13 PM,41.0,30.2,65,29.39,10.0,WSW,3.5,-,N/A,,Overcast,240,2011-11-13 23:13:00
5:33 PM,39.2,30.2,70,29.39,10.0,WSW,3.5,-,N/A,,Mostly Cloudy,250,2011-11-13 23:33:00
5:53 PM,39.2,30.2,70,29.39,10.0,Calm,Calm,-,N/A,,Clear,0,2011-11-13 23:53:00
6:13 PM,39.2,30.2,70,29.40,10.0,Calm,Calm,-,N/A,,Clear,0,2011-11-14 00:13:00
6:34 PM,37.4,30.2,75,29.40,10.0,Calm,Calm,-,N/A,,Clear,0,2011-11-14 00:34:00
6:53 PM,37.4,30.2,75,29.41,10.0,Calm,Calm,-,N/A,,Clear,0,2011-11-14 00:53:00
7:13 PM,33.8,30.2,87,29.41,10.0,Calm,Calm,-,N/A,,Scattered Clouds,0,2011-11-14 01:13:00
7:34 PM,35.6,30.2,81,29.42,10.0,Calm,Calm,-,N/A,,Scattered Clouds,0,2011-11-14 01:34:00
7:53 PM,35.6,30.2,81,29.41,10.0,Calm,Calm,-,N/A,,Scattered Clouds,0,2011-11-14 01:53:00
8:13 PM,35.6,30.2,81,29.41,10.0,Calm,Calm,-,N/A,,Scattered Clouds,0,2011-11-14 02:13:00
8:32 PM,37.4,30.2,75,29.42,10.0,South,3.5,-,N/A,,Mostly Cloudy,190,2011-11-14 02:32:00
8:53 PM,39.2,30.2,70,29.42,10.0,SSW,3.5,-,N/A,,Mostly Cloudy,210,2011-11-14 02:53:00
9:13 PM,39.2,30.2,70,29.43,10.0,SSW,4.6,-,N/A,,Overcast,210,2011-11-14 03:13:00
9:33 PM,39.2,28.4,65,29.43,10.0,SSW,4.6,-,N/A,,Overcast,210,2011-11-14 03:33:00
9:53 PM,39.2,28.4,65,29.44,10.0,SSW,4.6,-,N/A,,Overcast,210,2011-11-14 03:53:00
10:13 PM,39.2,28.4,65,29.44,10.0,SW,4.6,-,N/A,,Overcast,220,2011-11-14 04:13:00
10:33 PM,39.2,26.6,61,29.44,10.0,SW,5.8,-,N/A,,Mostly Cloudy,220,2011-11-14 04:33:00
10:53 PM,37.4,26.6,65,29.44,10.0,SSW,4.6,-,N/A,,Scattered Clouds,210,2011-11-14 04:53:00
11:12 PM,35.6,26.6,70,29.44,10.0,SSW,4.6,-,N/A,,Clear,200,2011-11-14 05:12:00
11:33 PM,35.6,26.6,70,29.44,10.0,SSW,3.5,-,N/A,,Clear,210,2011-11-14 05:33:00
11:53 PM,35.6,26.6,70,29.45,10.0,SSW,3.5,-,N/A,,Clear,210,2011-11-14 05:53:00